Location: ????????
(55.6189°N, 38.3031°E)
Time: 15:04:34
(UTC+00:00)

SL-16 R/B - Pass Details

Date: 26 February 2020
Orbit: 843 x 847 km, 71.0° (Epoch: 08 April)

Event Time Altitude Azimuth Distance (km) Brightness Sun altitude
Exits shadow 02:40:23 20° 292° (WNW) 1,858 3.5 -15.8°
Maximum altitude 02:42:52 27° 330° (NNW) 1,572 3.4 -15.4°
Drops below altitude 10° 02:47:40 10° 27° (NNE) 2,477 5.1 -14.7°
Sets 02:50:30 0° 40° (NE) 3,414 6.1 -14.3°
